Regional Weather Roundup
Issued by NWS

Home | Current Version | Previous Version | Graphics & Text | Print | Product List | Glossary Off
Versions: 1 2 3 4 5 6 7 8 9 10 11 12 13 14 15 16 17 18 19 20 21 22 23 24 25 26 27 28 29 30 31 32 33 34 35 36 37 38 39 40 41 42 43 44 45 46 47 48 49 50

000
ASUS43 KTOP 261908
RWRKS

WEATHER ROUNDUP FOR KANSAS
NATIONAL WEATHER SERVICE GOODLAND KS
100 PM CST WED NOV 26 2014

NOTE:  "FAIR" INDICATES FEW OR NO CLOUDS BELOW 12,000 FEET WITH NO
SIGNIFICANT WEATHER AND/OR OBSTRUCTIONS TO VISIBILITY.

KSZ001>006-013>018-027>032-041>047-262000-
NORTHWEST KANSAS

CITY           SKY/WX    TMP DP  RH WIND       PRES   REMARKS
GOODLAND       CLOUDY    37  24  59 N15       30.27S WCI  28
HAYS           CLOUDY    41  18  38 NW22G31   30.24S
HILL CITY      CLOUDY    39  19  44 N22G28    30.27R WCI  29
RUSSELL        PTSUNNY   39  22  50 NW24G36   30.22S WCI  28
$$

KSZ061>065-074>080-084>089-262000-
SOUTHWEST KANSAS

CITY           SKY/WX    TMP DP  RH WIND       PRES   REMARKS
DODGE CITY     CLOUDY    45  22  40 N22G28    30.24S
ELKHART          N/A     44  19  36 N15         N/A
GARDEN CITY    PTSUNNY   44  21  40 N21G31    30.25F
GREAT BEND     CLOUDY    39  19  45 NW24G31   30.24R WCI  28
LIBERAL        SUNNY     46  25  42 N22       30.27F
PRATT          PTSUNNY   45  19  36 N25G31    30.22R
$$

KSZ066>073-081>083-090>101-262000-
SOUTHEAST KANSAS

CITY           SKY/WX    TMP DP  RH WIND       PRES   REMARKS
CHANUTE        CLOUDY    46  26  45 NW14G29   30.09R
COFFEYVILLE    PTSUNNY   50  28  42 NW21      30.10R
HUTCHINSON     MOSUNNY   45  22  40 NW22G33   30.18R
MEDICINE LODGE   N/A     47  22  37 NW24G35   30.21R
NEWTON         PTSUNNY   45  21  39 NW24G37   30.16R
PARSONS        CLOUDY    50  27  40 NW21G28   30.10S
WICHITA INTL   PTSUNNY   47  22  37 NW26G36   30.17R
WICHITA JABRA  SUNNY     45  22  40 NW26G37   30.15R
WICHITA MCCONL MOSUNNY   47  21  35 NW23G31   30.15R
WINFIELD       MOSUNNY   49  26  41 NW23G36   30.17R
$$

KSZ007>012-019>026-033>040-048>060-102>105-262000-
NORTHEAST KANSAS

CITY           SKY/WX    TMP DP  RH WIND       PRES   REMARKS
CONCORDIA      CLOUDY    34  22  61 NW18G25   30.20R WCI  23
EMPORIA        MOSUNNY   42  25  50 NW23G32   30.10R
LAWRENCE       CLOUDY    41  28  60 NW24      30.07R
MANHATTAN      CLOUDY    37  25  61 N7G24     30.17R
MARYSVILLE     CLOUDY    32  25  74 NW26      30.13R WCI  18
OLATHE IND     PTSUNNY   41  28  60 NW24G30   30.03R
OLATHE EXE     CLOUDY    42  28  57 NW16G29   30.01R
SALINA         CLOUDY    42  23  46 NW24G36   30.19R
TOPEKA BILLARD CLOUDY    40  27  59 NW26G35   30.10R WCI  29
TOPEKA FORBES  CLOUDY    41  26  55 NW29      30.08R
$$



USA.gov is the U.S. government's official web portal to all federal, state and local government web resources and services.